Vertical_Velocity
2 1 0 0 1 2 1 1 -2 2 -1 -3 0 2 -2 -1 1 -0 0 -0 1 -2 0 1 -1 4 1 0 1 1 2 0 -2 -3 3 16 12 10 -1 -11 -10 10 4
3 -3 -0 -2 2 -1 -4 1 -0 1 1 -3 2 -1 0 0 -0 -1 -2 1 1 -1 0 2 1 1 1 -0 2 2 -0 2 -4 3 -5 1 -5 -4 8 -30 8 11 3
1 -4 -2 2 2 -0 -1 -3 -5 1 2 4 -0 -2 1 -1 1 3 -3 -2 2 -1 2 -1 -0 2 0 0 2 1 -1 -1 -1 -1 -3 7 1 -1 -8 -40 -7 -4 9
0 0 0 -1 -1 0 2 -3 2 -1 -1 1 -3 0 -2 -1 3 0 -2 -4 1 -1 3 -1 2 -0 1 -1 -0 -1 2 -1 0 -2 -3 -1 -1 1 1 -7 0 4 2
2 -4 -1 -0 1 -2 5 -2 2 -1 5 0 -4 -0 -1 -1 -1 -2 0 -4 -0 1 -2 5 1 -2 1 1 0 -1 0 -1 1 -5 2 -3 0 -1 4 -0 3 2 4
1 -1 1 0 1 -0 0 0 0 3 3 -2 4 -3 -1 1 -4 4 -0 0 -2 0 -2 -0 1 -1 0 1 0 1 -2 -1 4 -4 9 -2 -4 1 2 -1 5 9 3
0 -3 1 0 0 -3 -1 1 -2 -2 1 3 1 -1 -5 1 -4 3 1 8 0 -1 -3 -3 2 -0 -1 1 -0 -1 -3 -5 7 10 -8 -1 -1 -15 -8 -2 6 -0 -1
-1 -3 5 3 1 0 1 -2 -2 1 -2 -2 1 3 -1 1 -7 3 -0 8 2 0 -1 -3 -1 -1 -1 2 -2 -1 -5 -4 1 23 7 3 -4 -5 0 2 1 2 -1
1 -0 -3 3 3 4 2 -1 -0 -2 -1 -2 -2 3 -1 1 -2 -6 1 2 3 2 -2 -2 -1 -1 -0 2 -1 -3 -5 -6 14 11 37 53 2 2 1 -2 2 -0 -1
3 1 2 -1 -2 -4 2 3 -0 -1 1 -1 -2 -4 0 1 0 -3 -2 -3 -0 1 2 -1 -1 -1 1 5 1 0 -2 1 -9 -3 3 -21 3 2 1 -2 1 -1 -1
1 5 4 3 3 6 -3 -2 3 2 1 -0 -1 -2 -4 3 -2 -1 -2 -1 -3 1 2 1 0 -2 -1 4 3 -3 -2 -3 8 -0 -1 -2 2 1 1 1 -0 -0 -1
2 1 4 4 -0 -0 6 4 1 5 2 0 1 -1 1 -4 5 -2 -4 -1 1 0 0 1 0 -1 -2 -1 -1 -6 -2 37 -16 -2 -2 1 2 -1 1 -0 0 -1 1
-1 3 4 1 -1 -1 1 -2 -0 2 1 1 1 -2 -3 2 -3 2 1 -1 -3 -1 1 1 -1 -2 -2 -1 -3 1 -2 -15 -7 7 2 -1 -2 0 3 -2 1 -1 1
-1 1 1 4 5 -1 2 1 -2 -5 6 -1 3 3 -2 -1 1 -5 2 2 -4 -4 1 1 1 -2 2 1 5 2 -2 -0 -1 -8 2 4 -1 3 -1 -0 -1 2 1
2 -0 -2 1 1 2 2 1 1 3 -1 4 2 -0 2 -1 -2 0 -5 2 -1 -4 -1 -0 0 2 4 -1 -3 0 -4 -1 -1 -5 -2 0 -1 -2 -2 -0 1 2 0
-3 -2 -2 -2 -1 -1 4 -3 -7 -3 1 1 1 1 -0 -1 -1 -3 -0 -3 2 1 -2 -3 -0 3 10 0 0 7 -2 -0 -1 6 11 0 1 2 -1 3 1 1 -0
2 -3 -2 1 5 4 1 5 1 -3 1 -3 -1 -0 2 0 -4 -0 -3 -1 -2 3 -1 -2 -2 4 5 1 -0 4 -2 -3 1 -1 2 -1 -3 -5 0 0 7 2 1
-3 -2 2 -2 -0 2 -1 3 3 -2 -4 1 -2 -4 3 1 1 -3 -4 -0 -4 -1 2 -3 -3 0 4 2 1 -1 -0 -5 6 -2 1 -3 -1 2 -5 -0 -0 7 6
-3 -8 -2 4 -3 1 5 2 -2 6 1 -1 0 -3 -2 3 1 1 -8 -4 -1 -5 -0 2 -2 -2 3 2 0 2 1 -0 1 3 2 -1 -1 2 3 3 -6 -10 -1
-12 3 -7 -7 2 7 5 8 -0 6 -2 1 -0 -4 -2 -4 1 3 0 -8 -1 -4 -3 0 -1 -1 -2 -0 -0 -1 1 2 1 5 1 1 -0 -3 -2 -2 9 3 -2
1 -11 -12 -3 -4 9 2 4 2 -1 13 11 1 -0 -4 7 -3 -5 3 -1 -3 -2 -0 1 1 0 -3 -1 -7 -0 -0 -1 1 0 3 1 -0 -1 -0 -3 1 -0 -10
-6 -8 -8 -4 -5 -4 5 -2 8 5 7 15 16 1 -5 3 3 4 7 0 -4 1 -2 -2 0 1 -2 -2 -1 1 -3 -1 -0 3 -0 4 0 -0 -3 -2 -2 -1 -0
-8 -7 -2 -2 -6 0 6 4 -2 1 17 3 10 16 -10 -2 8 -1 2 -0 1 -5 -3 -0 2 -1 3 -4 -1 -0 -2 -2 -4 -0 -1 -1 2 1 -0 -2 -1 -3 -2
-9 -5 -6 -2 -5 -1 15 -7 1 -4 -0 -2 12 23 -3 6 1 2 2 2 -0 -2 -7 -0 5 2 -4 -2 1 -1 1 0 -3 -7 -1 -3 -0 -0 1 -2 -3 -3 -2
-10 -9 -11 -11 -2 -2 -3 8 4 4 -3 -19 -13 25 19 9 -2 9 -3 4 -9 6 -7 -1 0 -6 -2 0 1 1 1 -1 4 -3 -8 0 -2 -1 -1 -0 -2 -2 -0
-1 -3 -6 -1 -2 4 8 1 7 -5 10 -1 -18 -4 47 14 14 3 0 -5 4 11 -5 -3 5 -3 2 -0 -1 -2 1 -2 5 3 3 -10 2 -3 -0 -1 -1 -0 -1
Height
3147 3146 3148 3149 3149 3149 3148 3147 3145 3144 3144 3144 3143 3143 3143 3143 3143 3144 3144 3144 3143 3144 3144 3144 3145 3145 3145 3146 3147 3148 3148 3148 3150 3151 3149 3150 3150 3148 3149 3152 3148 3146 3149
3144 3143 3146 3148 3148 3148 3147 3146 3145 3144 3143 3142 3141 3142 3142 3142 3142 3143 3143 3143 3143 3143 3143 3144 3145 3145 3145 3146 3146 3147 3148 3147 3148 3148 3148 3148 3147 3148 3147 3145 3145 3148 3150
3142 3142 3144 3146 3147 3146 3146 3145 3145 3143 3142 3142 3140 3140 3141 3141 3141 3142 3141 3142 3142 3143 3143 3143 3144 3144 3145 3145 3147 3147 3148 3149 3149 3148 3148 3147 3148 3147 3146 3149 3149 3151 3155
3141 3141 3142 3144 3146 3145 3145 3145 3144 3143 3142 3140 3139 3138 3140 3140 3140 3141 3141 3141 3141 3142 3143 3143 3144 3144 3145 3145 3147 3147 3148 3148 3149 3148 3149 3150 3151 3149 3148 3151 3152 3156 3158
3141 3141 3142 3143 3143 3143 3143 3143 3143 3143 3141 3140 3139 3138 3138 3139 3139 3140 3140 3140 3141 3141 3143 3143 3143 3144 3145 3146 3146 3147 3148 3149 3149 3149 3149 3150 3151 3151 3152 3154 3154 3157 3159
3141 3140 3141 3142 3142 3142 3141 3141 3141 3141 3141 3139 3139 3138 3137 3138 3139 3139 3140 3140 3141 3141 3142 3143 3143 3143 3144 3145 3146 3147 3148 3148 3147 3148 3148 3150 3152 3153 3155 3156 3156 3157 3159
3139 3138 3140 3142 3141 3141 3140 3140 3139 3139 3139 3137 3137 3137 3137 3137 3138 3138 3139 3140 3140 3141 3141 3143 3142 3143 3143 3145 3146 3147 3148 3146 3146 3146 3146 3149 3151 3154 3156 3156 3157 3158 3159
3137 3137 3138 3139 3140 3140 3139 3138 3137 3137 3137 3136 3135 3136 3137 3136 3137 3138 3138 3140 3139 3140 3141 3142 3142 3142 3143 3144 3145 3147 3147 3146 3141 3138 3141 3145 3149 3153 3155 3156 3158 3159 3160
3136 3136 3136 3136 3137 3138 3138 3137 3136 3136 3135 3135 3134 3134 3136 3136 3136 3136 3137 3138 3138 3139 3140 3141 3141 3141 3142 3143 3145 3146 3147 3146 3144 3143 3139 3137 3149 3153 3155 3156 3158 3159 3160
3133 3134 3134 3134 3135 3136 3137 3136 3135 3135 3134 3133 3134 3132 3133 3134 3135 3136 3135 3136 3137 3137 3138 3139 3140 3140 3141 3142 3144 3145 3147 3147 3146 3146 3146 3147 3151 3154 3156 3156 3157 3159 3159
3129 3130 3131 3131 3132 3133 3134 3135 3135 3134 3134 3133 3132 3133 3131 3132 3133 3134 3133 3134 3134 3135 3135 3136 3137 3137 3139 3139 3142 3145 3146 3147 3148 3148 3149 3151 3152 3154 3155 3156 3157 3158 3159
3126 3125 3127 3128 3129 3130 3132 3133 3133 3133 3133 3132 3131 3131 3132 3130 3131 3132 3132 3131 3132 3132 3133 3134 3134 3134 3136 3138 3140 3143 3145 3142 3148 3148 3149 3151 3153 3154 3155 3156 3157 3158 3158
3121 3122 3123 3124 3126 3127 3128 3129 3131 3131 3131 3131 3130 3130 3129 3129 3128 3129 3130 3130 3130 3130 3130 3131 3131 3132 3135 3137 3139 3142 3143 3144 3145 3147 3148 3150 3152 3153 3153 3155 3156 3157 3157
3116 3117 3118 3118 3120 3122 3123 3124 3126 3128 3129 3129 3128 3128 3128 3127 3128 3127 3127 3128 3128 3127 3128 3129 3129 3131 3134 3136 3138 3140 3141 3143 3144 3144 3146 3149 3150 3150 3152 3153 3154 3156 3157
3111 3111 3111 3112 3112 3115 3117 3119 3120 3122 3124 3125 3125 3125 3125 3125 3125 3126 3125 3125 3126 3125 3126 3127 3127 3129 3131 3134 3136 3138 3140 3141 3143 3144 3144 3146 3148 3149 3150 3151 3153 3154 3156
3104 3105 3106 3107 3107 3109 3110 3112 3113 3115 3117 3119 3121 3122 3122 3123 3123 3124 3125 3124 3124 3124 3124 3125 3126 3127 3130 3132 3135 3136 3138 3139 3141 3141 3139 3142 3146 3148 3149 3149 3151 3152 3153
3097 3098 3099 3098 3100 3100 3101 3103 3106 3107 3109 3111 3114 3117 3118 3119 3120 3121 3122 3123 3122 3123 3123 3123 3125 3126 3128 3130 3133 3134 3136 3137 3137 3139 3141 3142 3143 3144 3147 3147 3147 3149 3150
3087 3086 3088 3089 3089 3090 3091 3092 3096 3099 3100 3102 3104 3109 3112 3113 3115 3117 3119 3120 3121 3121 3122 3121 3122 3124 3126 3129 3130 3131 3133 3134 3136 3137 3138 3139 3140 3140 3139 3143 3145 3145 3147
3079 3075 3074 3076 3076 3076 3077 3079 3081 3087 3090 3094 3096 3098 3103 3107 3109 3111 3114 3117 3118 3119 3119 3120 3120 3122 3124 3126 3128 3128 3130 3132 3133 3134 3135 3136 3136 3136 3136 3137 3140 3142 3143
3068 3068 3065 3062 3061 3065 3064 3064 3065 3071 3076 3081 3085 3086 3092 3098 3102 3105 3107 3111 3114 3115 3116 3118 3119 3119 3120 3122 3122 3125 3126 3128 3129 3130 3131 3132 3133 3133 3134 3134 3134 3137 3139
3053 3046 3052 3048 3049 3044 3047 3048 3051 3053 3060 3065 3071 3076 3081 3088 3093 3097 3100 3103 3108 3110 3112 3114 3116 3117 3117 3118 3118 3120 3122 3123 3125 3126 3126 3127 3129 3129 3129 3129 3131 3133 3132
3040 3034 3028 3030 3029 3029 3028 3029 3034 3040 3044 3050 3059 3065 3071 3078 3083 3087 3092 3095 3100 3104 3107 3109 3112 3114 3115 3115 3115 3116 3117 3120 3120 3122 3122 3122 3124 3124 3125 3125 3126 3127 3128
3025 3015 3010 3008 3009 3008 3009 3014 3018 3024 3030 3032 3040 3049 3057 3067 3073 3078 3084 3088 3093 3097 3101 3105 3107 3109 3111 3113 3113 3114 3114 3114 3115 3116 3117 3118 3119 3119 3120 3121 3122 3124 3124
3009 2999 2994 2991 2990 2991 2995 2996 3003 3008 3013 3019 3027 3036 3044 3054 3062 3068 3075 3079 3084 3089 3093 3098 3101 3104 3106 3108 3110 3110 3112 3112 3112 3112 3113 3113 3114 3115 3117 3117 3118 3119 3120
2996 2987 2981 2978 2977 2975 2977 2981 2986 2991 3002 3010 3019 3024 3029 3038 3049 3058 3065 3070 3076 3082 3087 3091 3095 3097 3100 3103 3106 3107 3109 3109 3110 3110 3108 3110 3110 3111 3112 3113 3114 3115 3116
2990 2978 2971 2966 2965 2964 2964 2967 2972 2979 2989 2998 3005 3013 3014 3022 3036 3046 3055 3061 3068 3075 3080 3084 3088 3090 3094 3097 3099 3101 3104 3105 3106 3107 3108 3106 3106 3107 3108 3108 3109 3111 3112